Regional Weather Roundup
Issued by NWS Kansas City/Pleasant Hill, MO

Home | Current Version | Previous Version | Text Only | Print | Product List | Glossary On
Versions: 1 2 3 4 5 6 7 8 9 10 11 12 13 14 15 16 17 18 19 20 21 22 23 24 25 26 27 28 29 30 31 32 33 34 35 36 37 38 39 40 41 42 43 44 45 46 47 48 49 50
834
ASUS43 KEAX 292210
RWREAX

WEATHER ROUNDUP FOR EASTERN KANSAS AND NORTHWEST MISSOURI
NATIONAL WEATHER SERVICE KANSAS CITY/PLEASANT HILL MO
500 PM CDT FRI JUL 29 2016

KSZ040-057-103>105-MOZ028-029-037-043-292300-
...KANSAS CITY METROPOLITAN AREA...

CITY           SKY/WX    TMP DP  RH WIND       PRES   REMARKS
K.C. INTL      PTSUNNY   82  63  52 N8        29.98F
K.C. DOWNTOWN  MOSUNNY   87  62  43 NW10      29.96S
LEES SUMMIT    SUNNY     85  64  49 N9        29.98S
OLATHE - IXD   MOSUNNY   84  64  50 N9        29.98F
OLATHE - OJC   MOSUNNY   84  61  45 N8        29.98S
LAWRENCE       MOSUNNY   86  65  49 N9        29.97F

$$

MOZ001>008-011>017-020>025-030>033-038>040-044>046-053-054-292300-
...NORTHERN AND CENTRAL MISSOURI...

CITY           SKY/WX    TMP DP  RH WIND       PRES   REMARKS
ST. JOSEPH     MOSUNNY   83  64  52 N10       29.99S
MOSBY          CLEAR     82  61  47 NW7       29.97S
WHITEMAN AFB   MOSUNNY   83  68  59 N7        29.96S
CLINTON        MOSUNNY   84  68  58 N12       29.96F
SEDALIA        SUNNY     84  69  60 N7        29.97S
WARSAW         NOT AVBL
CHILLICOTHE      N/A     85  62  46 NW8       29.98S
KIRKSVILLE     MOSUNNY   81  61  50 NW10      29.98R

$$

MOZ041-047>049-056>058-063>065-088>090-097-292300-
...EASTERN AND SOUTHERN MISSOURI...

CITY           SKY/WX    TMP DP  RH WIND       PRES   REMARKS
ST. LOUIS INTL PTSUNNY   86  69  56 N8        29.92S HX  90
SPIRIT OF STL  CLOUDY    87  69  54 VRB3      29.90F HX  91
COLUMBIA       MOSUNNY   83  68  60 NW10      29.95S
JEFFERSON CITY MOSUNNY   85  69  58 NW7       29.93S
ROLLA          MOSUNNY   80  70  71 W7        29.95S
OSAGE BEACH    MOSUNNY   82  72  71 VRB3      29.96S
SPRINGFIELD    CLOUDY    86  67  52 N13       29.96S
BRANSON        CLOUDY    77  72  83 CALM      30.00S
JOPLIN         SUNNY     86  69  56 N8        29.96F HX  90
WEST PLAINS    CLOUDY    71  67  87 NE3       30.00F

$$

IAZ060-094-KSZ022-034>040-054-083-096-NEZ052-066-093-292300-
...KANSAS...SOUTHEAST NEBRASKA AND IOWA...

CITY           SKY/WX    TMP DP  RH WIND       PRES   REMARKS
TOPEKA         MOSUNNY   86  63  45 CALM      29.97F
MANHATTAN      SUNNY     84  65  52 CALM      29.98F
EMPORIA        SUNNY     85  67  54 N10       29.98S
CHANUTE        MOSUNNY   86  68  54 VRB6      29.96F
WICHITA        PTSUNNY   86  66  51 NW7       29.99R
OMAHA          MOSUNNY   83  61  47 N10       30.00F
LINCOLN        MOSUNNY   83  61  47 N14       30.02F
FALLS CITY     CLOUDY    80  63  55 NE7       30.00S
LAMONI         MOSUNNY   78  65  63 N10       29.98S
DES MOINES     CLOUDY    73  64  73 N7        29.98F

$$





USA.gov is the U.S. government's official web portal to all federal, state and local government web resources and services.